STARLINK-1255, 45399

Orbit data source: Space-Track

STARLINK-1255, 45399 is a payload satellite owned by SpaceX/Seattle (US) in LEO that was launched on Wed, 18 Mar 2020 UTC via an FALCON 9 launch vehicle from the Air Force Eastern Test Range (AFETR). Payload-class satellites include a variety of spacecraft equipped with specific instruments for various scientific and technological missions. These include communications satellites like Starlink; space stations such as the ISS; scientific satellites like the Hubble; Earth observation satellites from companies like Planet Labs, Umbra, and HawkEye 360; GPS; miniature CubeSats for education and research; and military/defense satellites.

Loading next visibility...
Identifier
45399, 2020-019AR
Orbit
LEO
Country
Flag of USUS
Related business
Manufacturer
SpaceX/Seattle
Mission
Operational Commercial Communications
Bus & Motor
STARLINK, Unknown motor
Mass
260 kg wet, ~248 kg dry
Launch date (UTC)
2020-03-18 (5 years ago)
Launch vehicle
FALCON 9
Launch site
Air Force Eastern Test Range (AFETR)
Object type
Payload
Rocket body
Debris
Shape & HBR
Box + 1 Pan, 4.4 m
Radar Cross Section
13.562 m², Large (>1 m²)

Expand to show TLE details & history
Last TLE update: 7 hours ago

TLE from 7 hours ago
0 STARLINK-1255
1 45399U 20019AR  25259.25773141  .00004493  00000-0  32015-3 0  9999
2 45399  53.0529 199.6762 0001238  89.0499 271.0631 15.06419375303668
Epoch: 2025-09-16T06:11Z
TLE epoch observation values (Epoch: 2025-09-16T06:11:07.993Z)
Latitude
-0.00011°
Longitude
111.4422°
Altitude
548.015 km
Speed
7.589 km/s
True Right ascension
13h 18m 42s
True Declination
0° 00' 00"
Sunlit
Object was in daylight at epoch
Visualization orbit readout
Latitude
Unknown
Longitude
Unknown
Altitude
Unknown
Speed
Unknown
Apparent Right ascension
Unknown
Apparent Declination
Unknown
Sunlit
N/A
Visualization observer readout
Local Sidereal Time
05:38:06
Azimuth
Unknown
Elevation
Unknown
Doppler factor
Unknown
Orbital elements
Apogee altitude
548.281 km
Perigee altitude
546.566 km
Semi-major axis
6,925.56 km
Eccentricity
0.00012
Inclination
53.0529°
RAAN
199.6762°
Arg. of periapsis
89.0499°
True anomaly
271.04892°
Mean anomaly
271.0631°
Eccentric anomaly
271.05601°
Mean motion
3.76583 °/min
Orbital period
95.6 mins
BSTAR
0.00032015
Loading maneuver chart data...
Computing Atmospheric mass density...
Loading historical data...
Loading historical data...
Loading historical data...
Loading historical data...
Loading historical data...
Loading historical data...
Loading historical data...

Documentation

Showing up to 5 results
|